When you browse on this site, cookies collect data to enhance your experience and personalize the content and advertising you see.
Visit our Privacy Policy to learn more. By continuing to use the site, you agree to this use of cookies and data.
  • In Romania
  • List of Countries
  • For 7 days
  • Water Temperature
  • Weather Map
  • Weather Widgets
  • user-avatar
    Login

    Hourly Weather Dublin

    Today, 23 February, Sunday

    Time Temperature Precipitation Wind Pressure Humidity
    00:00 +4°C° 0 mm 6 mps 742 mmHg 93%
    01:00 +4°C° 1.5 mm 4 mps 740 mmHg 94%
    02:00 +4°C° 1.5 mm 3 mps 739 mmHg 95%
    03:00 +6°C° 1.5 mm 1 mps 737 mmHg 97%
    04:00 +5°C° 0.1 mm 3 mps 738 mmHg 96%
    05:00 +5°C° 0.1 mm 5 mps 738 mmHg 94%
    06:00 +5°C° 0 mm 4 mps 739 mmHg 93%
    07:00 +3°C° 0.1 mm 5 mps 740 mmHg 92%
    08:00 +3°C° 0.1 mm 6 mps 741 mmHg 92%
    09:00 +2°C° 0.1 mm 7 mps 743 mmHg 91%
    10:00 +3°C° 0 mm 7 mps 744 mmHg 86%
    11:00 +3°C° 0 mm 6 mps 745 mmHg 81%
    12:00 +3°C° 0 mm 6 mps 746 mmHg 75%
    13:00 +5°C° 0 mm 5 mps 747 mmHg 73%
    14:00 +5°C° 0 mm 5 mps 747 mmHg 70%
    15:00 +5°C° 0 mm 4 mps 748 mmHg 67%
    16:00 +4°C° 0 mm 3 mps 748 mmHg 72%
    17:00 +3°C° 0 mm 3 mps 749 mmHg 76%
    18:00 +3°C° 0 mm 2 mps 749 mmHg 81%
    19:00 +3°C° 0 mm 2 mps 749 mmHg 80%
    20:00 +3°C° 0 mm 3 mps 748 mmHg 80%
    21:00 +3°C° 0 mm 3 mps 748 mmHg 80%
    22:00 +3°C° 0.7 mm 4 mps 747 mmHg 85%
    23:00 +2°C° 0.7 mm 6 mps 745 mmHg 90%

    Tomorrow, 24 February, Monday

    Time Temperature Precipitation Wind Pressure Humidity
    00:00 0°C° 0.7 mm 7 mps 744 mmHg 96%
    01:00 +2°C° 1.6 mm 8 mps 742 mmHg 96%
    02:00 +5°C° 1.6 mm 8 mps 740 mmHg 96%
    03:00 +6°C° 1.6 mm 8 mps 738 mmHg 96%
    04:00 +7°C° 2.3 mm 9 mps 736 mmHg 95%
    05:00 +8°C° 2.3 mm 9 mps 735 mmHg 93%
    06:00 +9°C° 2.3 mm 10 mps 733 mmHg 92%
    07:00 +8°C° 0.1 mm 10 mps 732 mmHg 90%
    08:00 +8°C° 0.1 mm 10 mps 732 mmHg 89%
    09:00 +8°C° 0.1 mm 11 mps 731 mmHg 87%
    10:00 +7°C° 0 mm 11 mps 732 mmHg 86%
    11:00 +5°C° 0 mm 12 mps 732 mmHg 84%
    12:00 +3°C° 0 mm 12 mps 733 mmHg 83%
    13:00 +3°C° 0 mm 12 mps 734 mmHg 79%
    14:00 +3°C° 0 mm 12 mps 734 mmHg 76%
    15:00 +2°C° 0 mm 12 mps 735 mmHg 72%
    16:00 +2°C° 0 mm 11 mps 736 mmHg 73%
    17:00 +1°C° 0 mm 10 mps 736 mmHg 75%
    18:00 0°C° 0 mm 9 mps 737 mmHg 76%
    19:00 0°C° 0 mm 9 mps 737 mmHg 79%
    20:00 -1°C° 0 mm 9 mps 737 mmHg 81%
    21:00 -1°C° 0 mm 9 mps 737 mmHg 84%
    22:00 -1°C° 0.1 mm 9 mps 737 mmHg 83%
    23:00 -1°C° 0.1 mm 8 mps 736 mmHg 82%

    Day after tomorrow, 25 February, Tuesday

    Time Temperature Precipitation Wind Pressure Humidity
    00:00 -1°C° 0.1 mm 8 mps 736 mmHg 81%
    01:00 -1°C° 0 mm 8 mps 736 mmHg 83%
    02:00 -1°C° 0 mm 8 mps 736 mmHg 85%
    03:00 -1°C° 0 mm 8 mps 735 mmHg 87%
    04:00 -2°C° 0 mm 8 mps 735 mmHg 86%
    05:00 -2°C° 0 mm 8 mps 735 mmHg 84%
    06:00 -2°C° 0 mm 8 mps 735 mmHg 83%
    07:00 -2°C° 0 mm 8 mps 735 mmHg 82%
    08:00 -1°C° 0 mm 8 mps 735 mmHg 81%
    09:00 -1°C° 0 mm 8 mps 734 mmHg 80%
    10:00 0°C° 0.1 mm 8 mps 734 mmHg 81%
    11:00 0°C° 0.1 mm 8 mps 733 mmHg 81%
    12:00 +2°C° 0.1 mm 7 mps 733 mmHg 81%
    13:00 +1°C° 0.9 mm 8 mps 732 mmHg 81%
    14:00 0°C° 0.9 mm 9 mps 732 mmHg 80%
    15:00 0°C° 0.9 mm 10 mps 731 mmHg 80%
    16:00 -2°C° 0.2 mm 10 mps 731 mmHg 80%
    17:00 -3°C° 0.2 mm 10 mps 731 mmHg 81%
    18:00 -4°C° 0.2 mm 10 mps 731 mmHg 81%
    19:00 -4°C° 0 mm 9 mps 731 mmHg 82%
    20:00 -5°C° 0 mm 9 mps 732 mmHg 83%
    21:00 -5°C° 0 mm 9 mps 732 mmHg 83%
    22:00 -6°C° 0 mm 9 mps 732 mmHg 84%
    23:00 -6°C° 0 mm 8 mps 732 mmHg 84%

    26 February, Wednesday

    Time Temperature Precipitation Wind Pressure Humidity
    00:00 -6°C° 0 mm 8 mps 732 mmHg 84%
    01:00 -5°C° 0.2 mm 8 mps 733 mmHg 84%
    02:00 -5°C° 0.2 mm 9 mps 733 mmHg 83%
    03:00 -4°C° 0.2 mm 9 mps 734 mmHg 83%
    04:00 -4°C° 0 mm 9 mps 735 mmHg 83%
    05:00 -4°C° 0 mm 9 mps 736 mmHg 83%
    06:00 -4°C° 0 mm 8 mps 736 mmHg 82%
    07:00 -4°C° 0 mm 8 mps 737 mmHg 81%
    08:00 -4°C° 0 mm 8 mps 738 mmHg 79%
    09:00 -2°C° 0 mm 8 mps 739 mmHg 77%
    10:00 -1°C° 0 mm 8 mps 739 mmHg 73%
    11:00 0°C° 0 mm 8 mps 740 mmHg 68%
    12:00 +1°C° 0 mm 8 mps 740 mmHg 64%
    13:00 +2°C° 0.1 mm 7 mps 740 mmHg 68%
    14:00 +2°C° 0.1 mm 7 mps 740 mmHg 73%
    15:00 +2°C° 0.1 mm 6 mps 740 mmHg 77%
    16:00 +1°C° 0.1 mm 6 mps 739 mmHg 80%
    17:00 0°C° 0.1 mm 5 mps 739 mmHg 84%
    18:00 -1°C° 0.1 mm 5 mps 738 mmHg 87%
    19:00 -1°C° 0 mm 5 mps 738 mmHg 88%
    20:00 -1°C° 0 mm 4 mps 737 mmHg 89%
    21:00 -1°C° 0 mm 4 mps 737 mmHg 90%
    22:00 -1°C° 0.1 mm 4 mps 736 mmHg 91%
    23:00 0°C° 0.1 mm 3 mps 735 mmHg 92%

    27 February, Thursday

    Time Temperature Precipitation Wind Pressure Humidity
    00:00 0°C° 0.1 mm 3 mps 734 mmHg 94%
    01:00 0°C° 0.6 mm 3 mps 732 mmHg 95%
    02:00 0°C° 0.6 mm 3 mps 731 mmHg 97%
    03:00 0°C° 0.6 mm 3 mps 729 mmHg 98%
    04:00 0°C° 1.3 mm 3 mps 729 mmHg 98%
    05:00 0°C° 1.3 mm 4 mps 728 mmHg 98%
    06:00 0°C° 1.3 mm 4 mps 727 mmHg 98%
    07:00 0°C° 0.7 mm 4 mps 728 mmHg 98%
    08:00 -1°C° 0.7 mm 5 mps 728 mmHg 98%
    09:00 -2°C° 0.7 mm 6 mps 729 mmHg 98%
    10:00 -1°C° 0.1 mm 6 mps 730 mmHg 95%
    11:00 -1°C° 0.1 mm 6 mps 730 mmHg 92%
    12:00 +1°C° 0.1 mm 6 mps 731 mmHg 89%
    13:00 +1°C° 0 mm 6 mps 732 mmHg 87%
    14:00 +1°C° 0 mm 6 mps 732 mmHg 85%
    15:00 +2°C° 0 mm 6 mps 732 mmHg 83%
    16:00 +1°C° 0 mm 5 mps 732 mmHg 85%
    17:00 +1°C° 0 mm 5 mps 732 mmHg 87%
    18:00 0°C° 0 mm 4 mps 732 mmHg 90%
    19:00 0°C° 0.1 mm 5 mps 732 mmHg 91%
    20:00 0°C° 0.1 mm 5 mps 732 mmHg 92%
    21:00 -1°C° 0.1 mm 6 mps 732 mmHg 93%
    22:00 -2°C° 0 mm 6 mps 732 mmHg 92%
    23:00 -2°C° 0 mm 6 mps 732 mmHg 91%

    28 February, Friday

    Time Temperature Precipitation Wind Pressure Humidity
    00:00 -3°C° 0 mm 7 mps 732 mmHg 90%
    01:00 -3°C° 0 mm 6 mps 732 mmHg 90%
    02:00 -3°C° 0 mm 6 mps 732 mmHg 90%
    03:00 -3°C° 0 mm 6 mps 732 mmHg 90%
    04:00 -2°C° 0 mm 5 mps 731 mmHg 90%
    05:00 -2°C° 0 mm 5 mps 731 mmHg 91%
    06:00 -4°C° 0 mm 5 mps 731 mmHg 91%
    07:00 -2°C° 0 mm 5 mps 731 mmHg 90%
    08:00 -2°C° 0 mm 5 mps 730 mmHg 89%
    09:00 -1°C° 0 mm 4 mps 730 mmHg 89%
    10:00 0°C° 0 mm 4 mps 729 mmHg 84%
    11:00 +1°C° 0 mm 4 mps 729 mmHg 78%
    12:00 +3°C° 0 mm 3 mps 729 mmHg 73%
    13:00 +4°C° 0 mm 3 mps 728 mmHg 72%
    14:00 +5°C° 0 mm 2 mps 727 mmHg 70%
    15:00 +5°C° 0 mm 2 mps 726 mmHg 69%
    16:00 +4°C° 0.1 mm 2 mps 726 mmHg 75%
    17:00 +3°C° 0.1 mm 2 mps 725 mmHg 80%
    18:00 +1°C° 0.1 mm 2 mps 724 mmHg 86%
    19:00 +1°C° 0.1 mm 2 mps 724 mmHg 88%
    20:00 +1°C° 0.1 mm 1 mps 724 mmHg 90%
    21:00 +1°C° 0.1 mm 1 mps 724 mmHg 92%
    22:00 -1°C° 0.2 mm 2 mps 724 mmHg 91%
    23:00 -1°C° 0.2 mm 2 mps 724 mmHg 91%
    Show more